Wind_Speed
10 9 8 7 7 5 4 3 1 1 2 3 3 4 3 2 2 3 3 4 4 4 5 5 5 5 5 5 5 5 3 4 4 3 3 3 3 2 2 2 2 3 3 3
11 10 9 10 9 7 5 4 3 3 3 4 4 4 4 4 3 3 3 4 3 3 3 4 4 4 5 5 4 4 3 3 3 3 3 3 3 2 2 2 2 3 3 3
12 11 11 11 10 8 7 5 5 5 5 5 5 5 5 6 5 4 4 4 3 3 3 3 3 4 4 4 4 4 3 4 3 3 3 4 4 3 3 3 3 4 4 4
14 13 13 12 11 10 9 8 7 7 7 6 7 7 6 7 6 6 5 5 4 5 4 4 4 4 4 4 4 4 4 4 4 4 4 4 5 5 5 5 5 4 5 5
14 14 13 13 11 11 10 10 10 10 9 8 8 8 6 7 8 7 6 5 5 5 5 5 5 5 4 4 4 4 4 5 5 5 5 6 6 6 6 6 6 6 6 6
16 15 15 14 13 13 13 13 12 11 11 10 9 10 8 8 9 9 8 8 7 7 6 6 6 5 5 5 5 5 5 5 6 6 7 7 8 8 8 7 8 8 8 8
17 17 16 15 15 15 15 14 14 13 12 11 11 11 9 8 10 11 10 9 8 8 7 7 7 7 7 7 7 7 7 7 7 8 9 9 10 10 10 10 10 10 9 10
18 18 17 17 17 17 16 16 16 16 15 13 13 12 10 10 11 12 12 11 9 8 8 8 8 8 7 7 8 8 8 8 8 9 10 11 12 12 12 11 11 11 11 11
17 17 17 18 18 18 18 18 17 17 17 16 15 13 12 12 13 14 13 12 11 10 10 10 10 10 9 9 9 9 10 10 10 11 12 13 13 13 13 12 12 12 12 13
17 17 18 18 19 19 19 19 19 19 19 18 17 15 14 14 15 15 14 14 13 13 13 12 12 12 11 11 10 11 12 12 13 13 14 14 15 15 14 14 14 14 14 14
19 19 19 19 19 20 20 21 20 20 20 20 19 18 16 16 16 16 16 15 15 14 13 12 12 13 13 13 13 14 14 14 15 16 16 17 17 16 16 16 16 16 16 16
20 21 20 20 20 20 21 21 22 22 22 22 21 20 18 17 16 17 17 17 16 15 14 14 14 15 15 16 16 16 17 17 18 19 19 19 18 17 17 18 18 18 18 18
21 21 20 21 21 21 21 22 23 23 24 24 23 21 20 20 19 18 18 17 17 17 16 16 17 17 17 17 18 18 18 19 19 20 21 20 20 19 18 18 18 18 19 19
22 22 22 22 22 22 22 23 24 24 25 25 24 23 22 22 20 19 19 18 18 18 18 18 19 19 19 19 19 19 20 21 21 21 21 20 19 19 19 20 20 19 19 19
23 24 23 23 23 23 24 25 25 25 26 26 25 24 23 23 22 20 20 20 19 19 19 20 19 20 20 21 20 20 21 21 21 21 21 21 21 21 21 21 21 21 20 20
26 26 25 25 25 26 26 26 26 26 26 26 26 25 24 24 23 22 21 20 20 20 20 20 20 20 20 20 20 21 21 21 21 22 22 22 22 22 22 22 22 21 21 21
28 28 27 27 27 27 28 27 27 27 27 27 27 26 25 24 24 24 23 22 21 22 22 21 22 22 22 21 21 21 21 22 22 23 24 24 24 23 23 23 23 22 23 23
29 29 29 29 28 29 27 27 27 27 28 28 27 27 26 25 24 25 25 25 23 24 23 23 24 24 24 24 24 23 24 24 24 25 25 25 25 25 24 24 24 24 24 24
29 29 29 29 30 30 29 28 28 28 27 28 28 27 27 26 25 25 25 26 26 26 26 25 26 26 26 26 26 26 27 26 27 27 26 26 26 26 26 25 25 25 25 25
28 29 29 30 30 30 28 28 27 28 27 27 27 27 26 25 26 25 26 26 27 27 27 27 28 28 28 28 29 28 28 27 28 28 28 28 28 28 27 26 26 25 25 25
28 29 29 30 30 30 28 28 27 28 27 27 27 26 26 26 26 26 26 27 27 27 27 28 28 29 29 29 30 30 29 29 29 29 29 29 30 29 28 27 27 26 26 26
28 29 29 29 29 29 27 27 27 28 28 28 28 27 27 27 28 28 28 28 27 28 28 28 29 29 30 30 31 31 31 31 31 31 31 31 30 30 29 28 28 28 27 27
28 28 28 28 28 27 27 27 27 28 28 28 29 28 28 28 29 29 28 28 28 28 29 29 30 30 30 30 31 30 30 31 32 32 32 32 32 31 30 29 29 29 29 28
28 28 28 27 26 26 26 26 27 28 28 28 29 28 27 27 28 27 27 26 27 28 29 29 30 31 31 31 31 31 31 32 32 32 32 33 33 32 31 30 30 30 31 30
27 28 27 27 26 26 26 26 26 26 27 27 27 27 28 27 27 26 26 27 28 28 29 30 30 31 32 32 32 32 31 31 31 33 33 33 33 32 32 32 32 31 31 32
26 27 27 27 27 27 27 26 26 26 26 26 26 26 26 27 27 27 28 28 29 29 29 29 30 31 31 31 32 32 32 32 32 33 33 33 32 32 32 33 33 32 32 33
Wind_Direction
226 226 223 219 227 232 231 231 239 324 330 329 349 357 359 349 356 6 20 21 22 32 33 32 33 32 33 34 40 52 60 57 51 51 56 52 46 32 35 24 355 352 350 343
224 224 219 220 227 227 234 239 263 293 303 302 305 316 325 327 335 335 350 1 1 8 14 19 22 23 25 22 21 32 47 38 29 31 31 17 4 357 355 353 347 342 340 340
226 222 222 223 225 232 242 254 264 280 283 292 296 302 308 312 320 321 326 334 342 331 322 336 352 358 0 3 3 6 13 11 13 11 5 349 340 335 330 328 323 321 317 318
227 226 227 227 231 239 246 254 258 261 272 284 291 296 294 302 307 312 321 325 324 316 304 301 314 324 335 341 343 342 344 343 339 341 340 336 331 322 316 313 312 311 310 310
226 225 228 231 237 243 246 250 255 259 267 275 286 291 294 296 306 312 313 312 305 302 296 290 294 303 311 316 320 321 324 323 320 319 319 322 323 318 313 309 304 299 303 309
224 224 226 230 236 242 246 250 257 263 268 276 286 289 293 295 301 303 301 299 296 292 293 282 290 290 296 297 297 296 300 307 309 308 308 309 309 308 307 305 304 300 299 302
229 231 232 232 235 241 244 251 260 265 269 277 281 285 292 294 296 298 297 298 293 289 293 283 288 285 285 285 286 288 287 292 296 296 297 300 300 299 298 298 299 300 300 299
233 232 233 234 236 240 244 252 260 266 271 276 279 282 288 290 289 292 293 294 291 289 289 289 286 281 276 285 281 282 285 286 288 290 292 294 295 293 293 290 291 293 297 297
234 232 232 234 235 239 245 251 258 264 268 272 275 279 284 285 286 290 291 293 292 286 284 287 284 280 278 281 282 283 286 289 289 288 289 292 293 293 291 287 285 286 291 294
236 235 233 235 237 241 247 251 256 262 268 272 275 280 287 287 285 286 289 291 292 288 287 286 283 280 277 278 282 281 284 289 292 293 290 290 291 290 289 286 284 287 289 290
241 243 240 239 240 244 247 250 254 260 266 271 275 280 284 283 279 280 283 288 289 286 287 285 284 282 283 281 281 279 282 285 288 288 289 289 290 285 286 285 284 285 287 288
244 245 241 240 242 245 247 251 255 259 265 269 275 280 281 281 277 277 280 282 281 278 276 276 279 281 286 285 283 280 282 285 287 288 288 289 288 284 286 284 283 284 285 286
246 248 245 242 243 246 250 252 255 260 264 268 272 277 280 280 278 276 276 278 280 278 276 276 277 279 283 285 285 279 280 283 285 288 291 288 287 286 284 282 284 285 284 285
250 252 251 250 251 253 253 255 257 261 264 268 272 276 277 278 277 273 273 275 276 277 275 276 275 277 279 282 283 280 282 283 284 287 289 290 291 290 288 284 283 282 283 284
251 253 254 253 253 254 256 258 260 263 266 269 272 274 275 276 273 270 271 273 274 275 276 276 273 274 278 281 279 280 283 284 284 285 286 288 287 286 286 286 284 282 282 283
252 254 255 256 256 258 259 260 261 264 266 269 272 273 274 274 272 268 269 270 273 275 279 280 279 277 280 282 281 280 281 283 283 283 283 285 286 285 285 285 286 284 283 284
255 256 257 258 259 261 261 262 263 264 266 269 272 274 275 273 269 267 267 269 271 275 275 276 280 281 280 281 280 280 280 281 281 281 282 284 284 284 285 286 287 288 287 287
255 256 258 258 259 262 264 263 263 264 267 270 273 274 273 272 269 269 270 269 271 273 274 275 277 279 280 279 278 277 279 281 280 280 281 283 283 283 284 285 286 287 287 285
256 256 257 258 259 263 264 265 265 267 267 269 272 273 274 272 271 270 270 270 272 272 271 273 276 278 279 279 278 277 278 279 279 280 280 280 283 285 284 283 284 284 284 284
253 255 257 258 260 262 265 266 268 269 268 269 271 273 274 274 272 272 271 272 274 275 274 274 275 276 276 278 278 278 279 278 279 280 280 280 283 285 285 282 282 282 283 284
254 254 257 260 262 264 266 267 269 270 270 270 270 271 273 274 274 273 272 272 272 275 275 274 273 273 273 276 277 277 278 278 278 278 278 278 280 281 282 281 279 280 280 282
255 255 256 259 262 264 266 267 267 268 270 271 271 272 274 275 275 273 272 271 271 272 275 276 276 275 274 274 275 277 277 277 276 276 276 276 278 280 279 279 278 278 280 281
255 255 257 258 261 262 264 266 268 269 271 273 273 274 273 274 275 274 273 273 273 273 274 276 277 277 277 277 277 277 276 276 276 275 276 276 277 278 279 278 278 277 277 278
254 254 256 258 259 260 263 265 267 270 272 272 274 275 277 276 276 275 274 274 275 275 276 277 276 276 277 278 279 279 276 276 276 275 276 276 276 277 277 277 276 276 275 276
254 254 255 258 259 260 262 265 267 271 273 272 272 274 276 276 278 277 275 276 277 277 278 277 278 279 278 278 279 278 277 277 277 276 276 276 277 278 277 277 277 277 275 277
254 256 257 258 259 261 263 265 267 271 273 273 274 275 276 277 279 280 279 279 278 278 278 280 279 279 278 278 278 277 277 277 277 279 277 277 278 279 279 280 280 279 278 277
Height
5898 5900 5901 5902 5902 5903 5902 5903 5903 5903 5902 5902 5901 5901 5900 5900 5899 5898 5897 5897 5896 5895 5894 5893 5892 5891 5890 5889 5888 5888 5887 5887 5886 5886 5885 5885 5884 5884 5883 5883 5882 5882 5881 5881
5898 5899 5900 5900 5901 5901 5902 5902 5902 5902 5901 5901 5901 5901 5900 5899 5899 5898 5897 5896 5896 5895 5894 5893 5892 5891 5890 5889 5888 5888 5887 5887 5886 5886 5885 5885 5884 5884 5883 5883 5882 5882 5881 5880
5895 5898 5898 5898 5899 5900 5901 5901 5901 5901 5901 5900 5900 5900 5900 5899 5898 5897 5897 5896 5895 5894 5893 5893 5892 5891 5890 5889 5889 5888 5887 5887 5886 5886 5885 5885 5884 5884 5883 5882 5882 5881 5880 5879
5893 5895 5896 5896 5898 5898 5899 5900 5900 5900 5899 5899 5900 5899 5899 5898 5897 5896 5896 5895 5894 5893 5892 5892 5891 5891 5890 5889 5888 5888 5887 5886 5886 5885 5885 5884 5884 5883 5882 5881 5880 5880 5879 5878
5890 5892 5893 5894 5896 5896 5898 5898 5898 5898 5898 5898 5898 5898 5899 5897 5896 5896 5895 5894 5893 5892 5891 5891 5890 5889 5889 5888 5888 5887 5886 5886 5885 5885 5884 5884 5883 5882 5881 5880 5879 5878 5877 5876
5887 5889 5890 5892 5894 5894 5895 5896 5896 5896 5896 5896 5897 5896 5897 5896 5895 5895 5894 5893 5892 5891 5889 5889 5889 5888 5888 5887 5886 5886 5885 5885 5884 5883 5883 5882 5881 5880 5879 5878 5877 5876 5875 5874
5884 5886 5888 5889 5890 5891 5892 5893 5894 5893 5894 5894 5895 5894 5895 5894 5894 5893 5892 5891 5890 5889 5888 5887 5887 5887 5886 5885 5885 5884 5883 5883 5882 5882 5881 5880 5879 5878 5877 5876 5875 5874 5873 5873
5881 5883 5885 5886 5887 5888 5889 5890 5891 5891 5891 5892 5892 5892 5893 5892 5892 5891 5890 5889 5888 5887 5886 5885 5885 5885 5884 5883 5883 5882 5881 5881 5880 5879 5878 5878 5877 5876 5875 5874 5872 5871 5871 5870
5877 5880 5881 5883 5884 5885 5886 5886 5888 5888 5888 5888 5889 5890 5890 5890 5889 5888 5887 5886 5885 5885 5884 5883 5883 5882 5881 5881 5880 5880 5879 5878 5878 5877 5876 5875 5874 5872 5871 5870 5869 5868 5867 5866
5873 5876 5877 5879 5880 5881 5882 5883 5884 5884 5884 5884 5885 5886 5887 5887 5886 5885 5884 5884 5883 5882 5881 5881 5880 5879 5879 5878 5877 5877 5876 5875 5874 5873 5872 5871 5870 5869 5867 5866 5865 5864 5863 5862
5869 5871 5873 5874 5875 5877 5878 5879 5879 5880 5880 5880 5880 5884 5883 5882 5882 5882 5881 5881 5880 5879 5878 5877 5877 5876 5875 5874 5874 5873 5872 5872 5871 5869 5868 5867 5866 5865 5864 5862 5861 5860 5859 5858
5865 5866 5868 5870 5871 5872 5873 5874 5875 5876 5876 5876 5876 5880 5878 5878 5877 5877 5877 5876 5876 5875 5874 5874 5873 5872 5872 5871 5870 5869 5868 5867 5866 5865 5864 5862 5861 5860 5859 5858 5856 5855 5854 5853
5860 5862 5863 5865 5868 5868 5868 5869 5870 5871 5871 5871 5872 5875 5873 5873 5872 5872 5872 5872 5871 5871 5870 5869 5869 5868 5867 5866 5865 5864 5863 5862 5861 5860 5859 5857 5856 5855 5854 5853 5851 5850 5849 5848
5855 5857 5859 5861 5862 5863 5863 5864 5865 5866 5866 5866 5867 5868 5868 5867 5867 5867 5867 5867 5867 5866 5865 5864 5864 5863 5863 5861 5860 5859 5858 5857 5856 5855 5853 5852 5851 5850 5849 5847 5846 5845 5844 5843
5849 5851 5853 5854 5856 5857 5858 5859 5859 5860 5860 5861 5862 5862 5862 5861 5861 5862 5862 5861 5861 5860 5860 5859 5858 5857 5857 5856 5855 5854 5853 5852 5850 5849 5848 5847 5846 5845 5843 5842 5840 5839 5838 5837
5843 5845 5847 5848 5850 5851 5852 5853 5853 5854 5854 5854 5855 5856 5856 5855 5855 5855 5856 5856 5856 5855 5854 5853 5852 5851 5850 5850 5849 5848 5847 5846 5845 5844 5842 5841 5840 5838 5837 5836 5834 5833 5832 5831
5837 5839 5841 5842 5843 5844 5845 5846 5847 5847 5847 5848 5849 5850 5849 5849 5849 5849 5849 5849 5849 5849 5848 5847 5846 5845 5844 5843 5842 5842 5841 5840 5839 5838 5836 5835 5834 5832 5831 5829 5828 5827 5826 5825
5831 5833 5834 5835 5837 5837 5841 5840 5840 5841 5841 5841 5842 5842 5842 5842 5842 5842 5842 5842 5842 5842 5841 5840 5840 5839 5837 5837 5836 5835 5834 5833 5832 5831 5830 5829 5827 5826 5824 5823 5822 5821 5819 5818
5824 5826 5827 5828 5829 5830 5832 5833 5833 5834 5834 5834 5834 5835 5835 5834 5835 5835 5834 5834 5834 5834 5833 5833 5832 5832 5831 5830 5828 5827 5826 5825 5824 5823 5822 5821 5820 5819 5817 5816 5815 5814 5813 5811
5817 5819 5820 5821 5822 5823 5826 5826 5826 5828 5827 5828 5827 5828 5827 5827 5828 5829 5827 5827 5826 5826 5825 5825 5824 5823 5823 5822 5821 5819 5818 5817 5817 5816 5815 5813 5812 5811 5810 5808 5807 5806 5805 5803
5810 5812 5813 5814 5815 5816 5818 5819 5820 5821 5822 5821 5820 5820 5820 5820 5820 5820 5819 5819 5818 5818 5817 5816 5815 5815 5814 5813 5812 5811 5810 5809 5808 5807 5806 5805 5804 5802 5801 5800 5799 5798 5797 5796
5804 5805 5807 5808 5808 5811 5811 5812 5813 5813 5813 5813 5813 5813 5813 5812 5812 5811 5810 5810 5809 5809 5808 5807 5806 5806 5805 5804 5802 5801 5800 5800 5799 5798 5797 5796 5795 5793 5792 5792 5791 5790 5789 5788
5796 5799 5800 5802 5804 5803 5804 5804 5805 5804 5805 5805 5805 5805 5805 5804 5803 5802 5801 5801 5801 5800 5799 5798 5797 5796 5795 5794 5793 5792 5791 5790 5789 5789 5788 5787 5786 5785 5784 5783 5782 5781 5781 5780
5789 5791 5793 5794 5795 5796 5797 5797 5797 5797 5797 5797 5797 5797 5797 5796 5795 5794 5793 5792 5792 5791 5790 5789 5788 5787 5786 5785 5783 5782 5781 5780 5779 5779 5778 5777 5776 5775 5775 5774 5773 5772 5771 5771
5782 5784 5785 5787 5788 5789 5790 5790 5790 5790 5789 5789 5789 5789 5789 5788 5787 5786 5786 5785 5783 5782 5781 5780 5779 5777 5776 5775 5774 5773 5772 5771 5769 5767 5767 5767 5766 5765 5765 5764 5764 5763 5762 5761
5776 5777 5778 5780 5781 5782 5783 5783 5783 5783 5782 5782 5782 5782 5781 5780 5779 5778 5777 5776 5775 5774 5772 5771 5769 5768 5767 5766 5764 5763 5762 5761 5760 5759 5758 5757 5756 5756 5755 5754 5754 5753 5752 5751